Tracking 28091 objects as of 30-Sep-2023
HD Live streaming from Space Station
objects crossing your sky now

STARLINK-2686

Track STARLINK-2686 now!
10-day predictions
STARLINK-2686 is classified as:


NORAD ID: 48464
Int'l Code: 2021-040AN
Perigee: 553.4 km
Apogee: 555.4 km
Inclination: 53.1 °
Period: 95.6 minutes
Semi major axis: 6925 km
RCS: Unknown
Launch date: May 9, 2021
Source: United States (US)
Launch site: AIR FORCE EASTERN TEST RANGE (AFETR)
Your satellite tracking list
Your tracking list is empty




NASA's NSSDC Master Catalog

Two Line Element Set (TLE):
1 48464U 21040AN  23272.33675515  .00020002  00000-0  13584-2 0  9991
2 48464  53.0539 237.5483 0001471 101.6006 258.5148 15.06385371131997
Source of the keplerian elements: AFSPC